Location: ????????????
(44.6074°N, 33.9494°E)
Time: 20:51:06
(UTC+00:00)

Daily predictions for brighter satellites

Satellite Brightness Start Highest point End
(mag) Time Altitude Azimuth Time Altitude Azimuth Time Altitude Azimuth
Geosat 4.1 17:58:34 10° SSE 18:03:36 86° ENE 18:08:40 10° NNW
Cosmos 2322 Rocket 2.4 17:58:23 10° SSW 18:03:59 80° WNW 18:09:38 10° NNE
Meteor 1-21 Rocket 4.4 18:01:04 10° S 18:06:53 62° E 18:12:43 10° NNE
Cosmos 2237 4.2 18:03:39 10° SSW 18:09:17 66° ESE 18:15:00 10° NNE
Cosmos 1758 Rocket 4.0 18:12:26 10° SSE 18:16:44 47° E 18:21:03 10° NNE
Cosmos 1626 Rocket 4.2 18:13:23 10° SSW 18:17:47 63° W 18:22:15 10° N
USA 245 4.0 18:17:25 10° SE 18:20:32 37° ENE 18:24:25 10° N
Cosmos 1455 2.2 18:17:34 10° N 18:21:26 67° E 18:25:15 10° SSE
Cosmos 1328 4.3 18:19:58 10° SSE 18:23:42 41° E 18:27:28 10° NNE
COSMOS 2428 3.6 18:22:01 10° SSE 18:26:44 28° ESE 18:31:28 10° NE
Cosmos 1745 Rocket 4.0 18:20:50 10° S 18:27:00 83° E 18:33:19 10° N
Cosmos 1844 4.0 18:23:06 10° NNW 18:28:50 60° ENE 18:34:07 12° SE
Cosmos 2322 4.0 18:23:57 10° S 18:29:25 49° ESE 18:34:56 10° NE
SL-08 ROCKET BODY 4.4 18:23:56 10° S 18:29:52 87° E 18:35:58 10° N
MetOp-B 4.2 18:26:05 10° SSE 18:31:25 77° ENE 18:36:48 10° N
Cosmos 2263 Rocket 4.2 18:30:01 10° NW 18:34:15 23° WSW 18:38:28 10° SSW
Cosmos 1703 3.2 18:30:56 10° S 18:34:46 64° E 18:38:37 10° NNE
BREEZE-M DEB (TANK) 3.9 18:23:35 10° WNW 18:36:10 62° N 18:39:43 10° E
USA 215 3.7 18:31:14 10° ENE 18:37:18 39° SE 18:43:18 10° SSW
Cosmos 773 Rocket 4.3 18:32:27 10° S 18:37:32 50° ESE 18:42:39 10° NNE
Cosmos 2237 Rocket 4.0 18:36:08 11° ESE 18:38:14 13° E 18:40:46 10° ENE
Cosmos 2219 Rocket 2.7 18:33:39 10° S 18:38:46 38° ESE 18:43:55 10° NE
Cosmos 1953 Rocket 3.9 18:35:56 10° SSE 18:40:00 43° E 18:44:07 10° NNE
ERS-1 Rocket 3.7 18:36:49 13° SE 18:40:59 40° ENE 18:45:40 10° N
Cosmos 2360 Rocket 2.4 18:35:36 10° SSW 18:41:14 76° WNW 18:46:56 10° NNE
Cosmos 2333 4.3 18:35:46 10° S 18:41:16 59° ESE 18:46:52 10° NNE
Cosmos 1818 3.8 18:36:05 10° SW 18:41:30 75° NW 18:46:59 10° NNE
ATLAS CENTAUR R/B 2.4 18:42:32 10° NNW 18:45:50 30° NE 18:48:36 13° ESE
SPOT 5 3.6 18:43:58 14° SE 18:47:51 39° ENE 18:52:18 10° N
Atlas Centaur 2 3.7 18:44:13 10° SW 18:48:36 22° S 18:52:05 15° SE
Landsat 7 3.8 18:47:15 12° SSE 18:51:38 84° ENE 18:56:26 10° NNW
Cosmos 2333 Rocket 2.4 18:46:46 10° S 18:52:15 54° ESE 18:57:50 10° NE
Cosmos 1825 Rocket 3.6 18:50:37 10° S 18:55:03 84° W 18:59:33 10° N
GEOS 3 Rocket 3.6 18:53:44 10° NE 18:59:09 76° SE 19:04:32 10° SSW
Spot 2 Rocket 3.7 18:59:14 12° S 19:03:57 71° WSW 19:09:04 10° NNW
BREEZE-M DEB (TANK) 3.6 19:00:51 10° WNW 19:04:10 41° SSW 19:06:37 20° SSE
IGS 5A 3.9 19:05:59 14° S 19:09:31 60° W 19:13:39 10° NNW
USA 267 4.2 19:03:31 10° E 19:09:40 44° NNE 19:15:49 10° NW
ATLAS 5 CENTAUR R/B 2.7 19:06:18 10° WSW 19:10:17 45° NW 19:14:47 10° NNE
Cosmos 1315 Rocket 3.1 19:07:47 10° N 19:11:49 53° ENE 19:14:04 24° SE
Cosmos 1709 Rocket 4.1 19:05:41 10° S 19:11:58 81° W 19:18:23 10° N
OAO 2 Rocket 4.3 19:07:57 10° WSW 19:12:29 29° S 19:14:42 22° SE
USA 81 4.0 19:08:09 15° S 19:12:34 69° E 19:17:49 10° N
Cosmos 2278 Rocket 3.1 19:07:51 10° NNW 19:13:08 38° NE 19:17:00 17° ESE
CARTOSAT-1 3.5 19:12:34 21° SSE 19:15:22 78° ENE 19:19:42 10° N
Cosmos 1844 Rocket 3.3 19:10:10 10° NW 19:15:31 49° WSW 19:19:57 15° S
Cosmos 1892 4.2 19:16:30 19° ESE 19:17:15 20° E 19:20:06 10° NE
Meteor 1-11 4.3 19:15:09 10° S 19:20:47 84° W 19:26:31 10° N
SL-16 R/B 4.2 19:22:54 10° E 19:23:21 11° E 19:24:29 10° E
SPOT 1/Viking Rocket 3.9 19:20:05 16° S 19:24:13 61° W 19:29:22 10° NNW
Cosmos 2184 Rocket 4.2 19:24:07 21° SSE 19:28:10 53° E 19:34:16 10° NNE
Cosmos 1408 4.4 19:29:20 16° E 19:29:27 16° E 19:31:44 10° NE
Cosmos-2242 4.4 19:27:23 10° NNW 19:31:20 34° W 19:35:05 11° SSW
Cosmos 1400 Rocket 4.4 19:29:51 10° NNW 19:33:18 29° W 19:36:24 12° SSW
Cosmos 2221 2.7 19:32:14 10° N 19:36:34 57° E 19:38:23 32° SE
Resurs 01 Rocket 4.2 19:34:38 10° WSW 19:37:02 14° W 19:39:26 10° WNW
Terra 1.8 19:36:04 27° SSE 19:38:39 84° ENE 19:43:26 10° NNW
Cosmos 923 Rocket 4.3 19:36:07 25° SSE 19:38:49 49° ESE 19:43:55 10° NNE
Lacrosse 5 rocket 4.2 19:37:17 10° NNW 19:39:36 14° N 19:41:51 10° NE
NOSS 3-4 (A) 4.4 19:36:10 10° NNW 19:42:54 51° NE 19:48:39 17° ESE
NOSS 3-4 (C) 4.4 19:36:17 10° NNW 19:43:00 50° NE 19:48:47 17° ESE
BREEZE-M DEB (TANK) 1.9 19:41:59 10° WSW 19:46:06 70° SSE 19:46:27 57° E
TSX-5 4.2 19:42:45 10° NNW 19:46:14 51° ENE 19:47:45 32° ESE
NOSS 3-3 (A) 4.2 19:45:29 10° SW 19:51:19 70° NW 19:57:56 10° NE
NOSS 3-3 (C) 4.2 19:45:35 10° SW 19:51:25 70° NW 19:58:03 10° NE
BREEZE M DEB (TANK) 3.2 19:50:07 10° WNW 19:51:26 25° WSW 19:51:26 25° WSW
Cosmos 2058 3.1 19:51:27 39° SSE 19:52:39 54° E 19:56:43 10° NNE
Cosmos 2344 3.8 19:55:09 22° S 19:59:41 47° ESE 20:07:03 10° NE
Meteor 2-17 Rocket 4.3 19:59:29 26° S 20:03:03 82° E 20:09:08 10° N
Cosmos 1980 3.6 20:00:03 25° S 20:03:22 70° ESE 20:09:00 10° NNE
Cosmos 1825 3.2 20:05:10 29° E 20:05:14 29° E 20:08:34 10° NNE
Nadezhda 3 Rocket 4.1 20:01:11 10° N 20:07:33 68° E 20:10:35 32° SSE
Cosmos 2154 Rocket 4.0 20:05:01 30° S 20:08:10 69° E 20:14:21 10° NNE
COSMOS 2428 3.7 20:05:17 10° SW 20:10:43 47° WNW 20:16:13 10° NNE
ATLAS 2AS CENTAUR R/B 3.1 20:03:22 10° NW 20:10:57 65° NE 20:15:14 25° ESE
JB-3 4.3 20:07:08 10° N 20:10:58 77° WNW 20:12:11 42° SSW
Cosmos 1076 Rocket 3.4 20:10:47 44° S 20:12:04 80° E 20:16:22 10° N
Cosmos 2074 Rocket 4.2 20:09:51 20° SSW 20:14:16 69° W 20:20:29 10° N
Aureole 2 Rocket 4.1 20:14:47 10° NNE 20:16:51 19° ENE 20:16:51 19° ENE
DELTA 2 R/B (1) 3.8 20:12:38 10° WSW 20:17:57 46° S 20:20:29 28° ESE
Cosmos 2084 4.3 20:14:28 10° NW 20:18:36 37° WSW 20:19:31 33° SSW
Thor Agena Rocket 3.7 20:14:26 10° NNE 20:19:28 55° E 20:20:54 41° SSE
Cosmos 2151 3.5 20:19:10 39° ESE 20:19:39 41° E 20:23:41 10° NNE
USA 215 3.5 20:14:02 10° NE 20:20:33 70° NNW 20:27:03 10° WSW
Cosmos 2237 Rocket 2.1 20:17:54 25° SSW 20:21:24 89° ESE 20:27:09 10° NNE
Cosmos 2219 Rocket 3.7 20:17:39 10° WSW 20:22:44 35° NW 20:27:52 10° N
ATLAS CENTAUR R/B 2.6 20:21:35 10° WNW 20:24:36 24° WSW 20:24:46 24° WSW
Cosmos 1869 4.3 20:22:05 10° NNW 20:25:48 38° W 20:27:01 30° SW
Cosmos 1371 Rocket 4.1 20:21:24 10° NNW 20:26:40 68° ENE 20:28:31 40° SE
Genesis I 3.1 20:26:09 53° SW 20:27:01 90° ESE 20:30:57 10° NE
Gblst 52 Del rocket 4.4 20:22:06 10° WNW 20:27:51 63° SW 20:30:21 37° SSE
Spot 4 3.9 20:27:43 44° SE 20:29:07 66° ENE 20:33:52 10° N
Cosmos 158 Rocket 3.8 20:29:47 35° SSW 20:31:52 82° WNW 20:36:48 10° NNE
Cosmos 2112 Rocket 4.0 20:32:16 33° SSW 20:34:47 84° WNW 20:40:11 10° NNE
Cosmos 2333 Rocket 4.2 20:32:02 10° WSW 20:36:51 27° NW 20:41:43 10° N
Atlas Centaur 2 4.3 20:32:45 10° SW 20:34:39 15° SW 20:34:39 15° SW
Cosmos 1151 Rocket 4.0 20:34:14 10° N 20:38:11 33° ENE 20:38:54 31° E
ALOS 2 3.3 20:41:33 38° ESE 20:42:30 44° ENE 20:46:40 10° N
BREEZE-M DEB (TANK) 2.4 20:43:57 62° S 20:44:18 66° SSE 20:51:47 10° ENE
Cosmos 1295 Rocket 4.5 20:45:04 34° SSW 20:47:57 76° W 20:54:05 10° N
Cosmos 2056 Rocket 3.5 20:45:05 10° NNW 20:50:32 88° WSW 20:52:07 48° SSE
Iridium 2 3.9 20:46:49 10° NNW 20:50:35 58° W 20:50:54 55° WSW
Nimbus 7 Rocket 4.5 20:46:19 10° NNE 20:52:13 62° ESE 20:54:00 43° SSE
USA 267 3.2 20:49:19 34° SE 20:52:24 77° SW 20:59:00 10° NW
Cosmos 1892 4.4 20:51:28 22° WSW 20:52:46 27° WNW 20:56:05 10° NNW
MOS 1-B Rocket 4.3 20:45:14 10° NNE 20:52:54 89° ESE 20:56:07 34° SSW
EO 1 Del DPAF 3.2 20:50:50 10° N 20:54:35 70° WNW 20:54:55 65° WSW
GP-B 3.3 20:50:45 10° N 20:55:08 55° E 20:55:38 51° ESE
Cosmos 962 Rocket 4.5 20:52:34 37° SSW 20:55:17 85° W 21:01:42 10° N
Cosmos 2278 Rocket 3.1 20:52:03 10° NW 20:57:10 36° WSW 20:58:50 30° SW
Cosmos 1633 4.5 20:58:47 20° ENE 20:58:47 20° ENE 21:01:00 10° NE
Gbstr 26 Del rocket 4.2 21:01:50 25° E 21:01:50 25° E 21:03:50 10° ENE
Cosmos 2297 3.8 20:54:14 10° NNW 21:00:00 72° ENE 21:01:57 42° SE
Cosmos 1943 Rocket 3.3 20:55:49 10° NNW 21:01:05 38° NE 21:04:00 23° ESE
Cosmos 1606 2.7 20:58:27 10° N 21:02:21 74° E 21:02:25 74° E
Cosmos 44 2.8 21:02:28 69° SSW 21:02:57 84° SE 21:07:24 10° NE
Cosmos 1408 3.9 21:03:39 28° W 21:04:13 30° WNW 21:07:26 10° NNW
SL-16 R/B 2.1 21:04:44 47° S 21:06:26 77° ESE 21:12:08 10° NNE
IRIDIUM 104 4.3 21:09:30 53° SSE 21:10:42 75° E 21:15:56 10° N
Cosmos 371 Rocket 3.4 21:06:49 10° NNW 21:11:41 67° ENE 21:12:43 52° SE
APEX 4.3 21:12:51 10° N 21:14:37 28° NNE 21:14:37 28° NNE
Terra 4.3 21:15:38 10° WSW 21:17:01 11° W 21:18:24 10° WNW
Cosmos 1452 Rocket 3.8 21:12:15 10° NNW 21:17:28 59° ENE 21:19:02 41° ESE
IRIDIUM 114 4.2 21:18:38 55° S 21:19:51 90° NE 21:25:06 10° N
Lacrosse 5 rocket 3.5 21:16:42 10° NNW 21:19:59 24° NNE 21:23:08 10° ENE
CREW DRAGON DEMO-1 DEB 4.4 21:21:24 31° NW 21:22:00 35° NNW 21:24:52 10° NE
Cosmos 405 4.2 21:19:19 10° N 21:22:23 32° ENE 21:22:23 32° ENE
Cosmos 1515 Rocket 3.8 21:18:16 10° N 21:22:34 56° E 21:23:00 53° ESE
Cosmos 1766 Rocket 3.8 21:24:24 53° WSW 21:25:02 60° W 21:29:25 10° N
Cosmos 1328 Rocket 3.4 21:24:29 10° NNW 21:28:47 73° W 21:29:03 70° SW
IRIDIUM 103 4.3 21:27:46 52° SSW 21:29:00 76° W 21:34:14 10° N
Okean 3 Rocket 4.3 21:30:13 39° WSW 21:31:06 45° WNW 21:35:23 10° N
Meteor 2-3 Rocket 3.6 21:30:38 51° S 21:32:08 85° E 21:37:52 10° NNE
NOSS 3-4 (A) 4.4 21:27:11 10° NW 21:33:51 44° WSW 21:36:03 36° SSW
Cosmos 864 Rocket 4.4 21:31:43 44° SSW 21:33:51 83° W 21:40:12 10° N
NOSS 3-4 (C) 4.4 21:27:17 10° NW 21:33:58 44° WSW 21:36:12 36° SSW
Cosmos 2218 Rocket 4.1 21:32:57 42° SSW 21:35:16 76° W 21:41:37 10° N
Cosmos 2366 rocket 4.1 21:37:17 42° SSW 21:39:36 74° W 21:45:58 10° N
Cosmos 1340 3.0 21:40:48 58° WNW 21:40:48 58° WNW 21:44:25 10° N
Cosmos 1825 4.2 21:39:57 18° W 21:40:47 19° WNW 21:43:35 10° NNW
Cosmos 1603 4.3 21:40:44 39° SE 21:41:36 41° ESE 21:46:55 10° NE
Cosmos 2228 Rocket 3.6 21:38:44 10° N 21:43:14 52° ENE 21:43:57 46° ESE
Meteor 1-26 Rocket 4.3 21:38:21 10° NNW 21:44:23 79° W 21:46:01 50° S
Cosmos 1821 Rocket 4.2 21:46:19 41° SE 21:48:09 55° E 21:54:06 10° NNE
Cosmos 2369 Rocket 2.5 21:43:46 10° NNW 21:49:18 60° ENE 21:51:34 35° SE
CZ-4 R/B 4.1 21:48:07 10° NNE 21:52:42 50° E 21:53:14 47° ESE
Cosmos 1743 Rocket 3.3 21:52:31 77° SE 21:52:46 81° E 21:57:07 10° N
Cosmos 44 Rocket 4.1 21:53:25 35° ESE 21:53:25 35° ESE 21:57:29 10° NE
Sich 1 4.4 21:52:56 26° E 21:53:19 27° E 21:56:58 10° NNE
Cosmos 304 Rocket 3.7 21:50:52 10° NNW 21:55:44 84° ENE 21:56:32 62° SSE
YAOGAN 11 3.9 21:55:39 75° S 21:56:00 84° WSW 22:00:26 10° NNW
COSMOS 2455 2.7 21:50:40 10° NNW 21:56:44 85° WSW 21:58:41 46° SSE
Helios 1A 3.0 21:57:31 63° WSW 21:57:31 63° WSW 22:01:39 10° NNW
ATLAS 2AS CENTAUR R/B 3.7 21:55:09 10° NW 22:01:20 30° WSW 22:02:39 28° SW
USA 32 4.5 22:11:10 41° SE 22:12:32 51° E 22:17:38 10° NNE
CRYOSAT 2 4.3 22:08:48 10° N 22:13:41 78° E 22:14:33 59° SSE
CZ-2D R/B 4.0 22:10:25 10° NE 22:14:00 18° E 22:16:01 15° ESE
Cosmos 1812 3.3 22:12:21 10° N 22:16:06 47° ENE 22:16:21 46° E
Cosmos 1782 3.4 22:13:53 10° NNW 22:17:28 45° W 22:17:28 45° W
Cosmos 2263 4.3 22:12:14 10° NNW 22:18:00 74° ENE 22:20:24 36° SE
ALOS 2 4.4 22:18:57 19° W 22:19:01 19° W 22:22:09 10° NW
Cosmos 1346 Rocket 3.8 22:20:27 34° W 22:20:42 34° WNW 22:24:20 10° N
Cosmos 494 Rocket 3.9 22:20:25 56° S 22:21:32 84° ESE 22:26:43 10° NNE
SL-16 R/B 3.9 22:17:47 11° ESE 22:22:59 33° ENE 22:28:28 10° N
CZ-4C R/B 3.1 22:16:05 10° NW 22:23:20 77° NE 22:30:40 14° SE
Helios 1B rocket 2.2 22:19:24 10° NNE 22:23:33 84° ESE 22:23:47 78° SSE
Cosmos 1666 Rocket 4.4 22:24:14 37° ESE 22:24:56 39° E 22:29:02 10° NNE
Cosmos 1500 Rocket 4.0 22:24:24 45° WSW 22:24:57 48° WNW 22:29:13 10° N
PSLV R/B 3.4 22:20:49 10° N 22:25:03 78° WNW 22:25:30 68° SW
Cosmos 1633 4.2 22:32:55 25° WNW 22:32:56 25° WNW 22:35:58 10° NNW
Cosmos 1934 Rocket 4.0 22:33:30 42° S 22:35:42 78° E 22:41:58 10° N
Cosmos 2239 Rocket 4.5 22:34:19 42° SSW 22:36:31 75° W 22:42:44 10° N
Cosmos 1441 Rocket 3.8 22:38:42 44° ESE 22:39:02 46° E 22:42:51 10° NNE
RESURS DK-1 2.2 22:36:52 10° NNW 22:41:00 73° WSW 22:41:06 73° SW
Cosmos 1805 Rocket 3.5 22:41:36 59° WSW 22:42:07 66° W 22:46:27 10° N
Cosmos 1943 3.2 22:41:16 44° SW 22:43:08 80° WNW 22:48:50 10° NNE
Cosmos 1331 Rocket 4.0 22:38:57 10° NNW 22:44:15 69° WSW 22:45:33 50° S
Cosmos 1943 Rocket 2.9 22:39:40 10° NW 22:44:47 36° WSW 22:45:29 34° WSW
Gbstr 26 Del rocket 4.0 22:44:20 18° W 22:46:51 42° NNW 22:51:03 10° NE
Iridium 4 Rocket 4.2 22:45:51 32° SSE 22:48:25 57° E 22:53:57 10° N
SL-16 R/B 4.2 22:47:01 10° W 22:51:12 21° NW 22:55:25 10° N
Cosmos 1862 3.9 22:53:29 42° W 22:53:47 43° WNW 22:57:36 10° N
Meteor 1-29 3.1 22:50:35 10° N 22:53:46 62° NW 22:53:46 62° NW
Meteor 2-20 4.4 22:50:22 10° NNW 22:56:30 74° W 22:58:54 39° S
Lacrosse 5 rocket 1.0 22:55:37 10° NW 22:59:14 69° W 22:59:14 69° W
Cosmos 1110 Rocket 4.5 22:57:15 10° NNW 23:02:14 43° WSW 23:03:08 39° SW
Cosmos 389 Rocket 2.3 23:01:08 10° NNW 23:04:34 78° WNW 23:04:34 78° WNW
ISS -3.6 23:04:52 69° NW 23:04:56 69° NNW 23:08:17 10° ENE
MOZ.5/SAFIR/RUBIN 5/SL-8 3.9 23:03:38 37° SSE 23:05:29 76° ENE 23:10:15 10° N
Cosmos 1238 Rocket 3.9 23:03:27 34° SSE 23:06:08 67° E 23:11:26 10° NNE
SeaSat 1 2.5 23:01:43 10° NNE 23:06:38 65° ESE 23:08:09 43° S
UNK 4.2 23:05:19 27° SE 23:07:36 56° ENE 23:12:08 10° N
Cosmos 1269 Rocket 4.2 23:05:52 39° SW 23:07:41 64° WNW 23:12:57 10° NNE
Cosmos 1707 Rocket 3.8 23:06:25 10° NNW 23:10:47 54° W 23:11:31 48° SW
Cosmos 1470 Rocket 3.7 23:16:13 41° SSE 23:17:38 67° E 23:22:05 10° NNE
Cosmos 972 Rocket 4.3 23:12:48 10° NNW 23:19:08 85° ENE 23:22:33 25° SSE
Resurs 1-4 Rocket 2.2 23:16:06 10° NNE 23:21:27 70° ESE 23:23:48 34° S
Spot 1 4.5 23:20:27 40° SSW 23:22:03 61° WSW 23:26:54 10° NNW
Cosmos 1302 Rocket 4.0 23:18:24 10° NNW 23:23:32 59° WSW 23:25:17 38° SSW
Okean 1 4.5 23:21:00 10° N 23:24:45 39° ENE 23:27:02 20° SE
Cosmos 1633 Rocket 3.4 23:27:34 40° SW 23:28:41 51° WNW 23:33:00 10° N
ADEOS II 3.3 23:26:05 10° NNE 23:30:51 33° E 23:34:18 16° SSE
IRAS Rocket 4.3 23:28:42 34° SSW 23:30:53 57° WSW 23:36:19 10° NNW
DELTA 2 DEB (DPAF) 4.2 23:29:43 42° SSW 23:30:54 57° W 23:35:19 10° NNW
Sich 1 4.3 23:29:53 25° W 23:30:55 27° WNW 23:34:39 10° NNW
Cosmos 1862 Rocket 3.5 23:27:07 10° NNW 23:31:33 69° W 23:32:57 42° SSW
SL-4 R/B 1.9 23:32:14 41° NW 23:32:14 41° NW 23:34:55 10° NNE
Cosmos 2369 Rocket 3.5 23:28:46 10° NW 23:32:50 21° W 23:33:18 21° WSW
Cosmos 44 Rocket 4.5 23:32:07 20° W 23:34:42 34° NW 23:39:03 10° NNE
Lacrosse 5 2.2 23:36:20 35° S 23:38:10 53° SE 23:43:07 10° NE
IRS-1D 4.2 23:33:36 10° NNE 23:38:23 45° E 23:41:15 22° SSE
Cosmos 1656 Rocket 4.4 23:38:27 10° NW 23:43:15 33° WSW 23:44:30 29° SW
AQUA 3.8 23:44:24 10° NNE 23:49:12 84° ESE 23:51:35 30° S
Okean 1-7 3.6 23:45:12 10° N 23:49:34 58° E 23:52:53 17° SSE
CZ-2D R/B 2.3 23:49:14 10° N 23:54:29 64° WNW 23:57:20 27° SW
